Regional Weather Roundup
Issued by NWS

Home | Current Version | Previous Version | Graphics & Text | Print | Product List | Glossary On
Versions: 1 2 3 4 5 6 7 8 9 10 11 12 13 14 15 16 17 18 19 20 21 22 23 24 25 26 27 28 29 30 31 32 33 34 35 36 37 38 39 40 41 42 43 44 45 46 47 48 49 50
000
ASUS43 KDMX 111507
RWRIA

WEATHER ROUNDUP FOR IOWA
NATIONAL WEATHER SERVICE DES MOINES IA
1000 AM CDT FRI JUL 11 2014

NOTE: "FAIR" INDICATES FEW OR NO CLOUDS BELOW 12,000 FEET WITH NO
SIGNIFICANT WEATHER AND/OR OBSTRUCTIONS TO VISIBILITY.

* - THESE STATIONS ARE NOT NWS STATIONS...THUS NOT UNDER NWS
QUALITY CONTROL.  THEY ALSO DO NOT REPORT WEATHER SUCH
AS PRECIPITATION OR FOG.

IAZ001>003-012>014-020>022-031>034-043>046-111600-
   NORTHWEST IOWA

CITY           SKY/WX    TMP DP  RH WIND       PRES   REMARKS
CARROLL *      CLOUDY    66  66 100 S14       30.02R
CHEROKEE *     CLOUDY    70  68  94 S14       29.94F
DENISON *      SUNNY     68  66  94 SE16G28   29.94F
LE MARS *      MOSUNNY   72  68  88 S20G28    29.93R
ORANGE CITY *  PTSUNNY   72  66  83 S18       29.95R
SHELDON *      CLOUDY    72  66  83 S17G25    29.94R
SIOUX CITY     CLOUDY    73  68  84 S15G22    29.94F
SPENCER        PTSUNNY   72  66  81 S21G29    29.95S
STORM LAKE *   SUNNY     70  70 100 S16G31    29.96F
$$

IAZ055>058-069>071-079>083-090>094-111600-
   SOUTHWEST IOWA

CITY           SKY/WX    TMP DP  RH WIND       PRES   REMARKS
ATLANTIC *     CLOUDY    68  64  88 SE6       30.06S
AUDUBON *      MOSUNNY   70  66  88 S7        30.07S
CLARINDA *     SUNNY     73  68  83 S5        30.06S
COUNCIL BLFS * MOSUNNY   70  68  94 SE12G17   30.00F
CRESTON *      CLOUDY    68  66  94 E8        30.08F
HARLAN  *      CLOUDY    68  66  94 SE17G23   30.02F
LAMONI         LGT RAIN  68  66  93 SE8       30.06F
RED OAK *      CLOUDY    72  68  88 E5        30.06S
SHENANDOAH *   PTSUNNY   73  68  83 SE6       30.05S
$$

IAZ047>049-059>061-072>074-084-111600-
   CENTRAL IOWA

CITY           SKY/WX    TMP DP  RH WIND       PRES   REMARKS
AMES           RAIN      67  65  93 SE9       30.05F FOG
ANKENY *       LGT RAIN  66  64  94 SE8G14    30.08F
CHARITON *     SUNNY     70  64  83 S6        30.10R
DES MOINES     TSTM      68  64  87 E5        30.09S
GRINNELL*      PTSUNNY   70  61  73 S9G16     30.11F
KNOXVILLE *    MOSUNNY   70  63  78 W5        30.11R
MARSHALLTOWN   CLOUDY    71  63  75 SW7       30.11S
PELLA *        CLOUDY    72  63  73 CALM      30.11S
PERRY *        RAIN      66  64  94 SE10      30.03F
$$

IAZ004>006-015-016-023>025-035-036-111600-
   NORTH CENTRAL IOWA

CITY           SKY/WX    TMP DP  RH WIND       PRES   REMARKS
ALGONA *       SUNNY     70  63  78 S20G26    29.97F
CLARION *      SUNNY     70  63  78 S20G29    30.00F
ESTHERVILLE    PTSUNNY   71  64  78 S21G30    29.95F
FORT DODGE *   CLOUDY    66  63  88 S13G21    29.99F
MASON CITY     CLOUDY    71  62  73 S17G23    30.05F
FOREST CITY *  SUNNY     72  63  73 S17G24    30.01F
IOWA FALLS *     N/A     70  61  73 S15       30.07F
$$

IAZ007>011-017>019-026>030-037>042-050>054-066-111600-
   NORTHEAST IOWA

CITY           SKY/WX    TMP DP  RH WIND       PRES   REMARKS
CEDAR RAPIDS   PTSUNNY   69  58  67 S12       30.12S
CHARLES CITY * PTSUNNY   66  59  77 S10       30.10S
CLINTON *      PTSUNNY   70  57  64 S8        30.19F
DECORAH *        N/A    N/A N/A N/A MISG        N/A
DUBUQUE        CLOUDY    67  58  72 S12       30.15S
MONTICELLO *   SUNNY     66  59  77 S9        30.15R
OELWEIN *      MOSUNNY   66  66 100 S14       30.13S
WATERLOO       CLOUDY    68  58  70 S10       30.09S
$$

IAZ064-065-067-068-078-111600-
   EAST CENTRAL IOWA

CITY           SKY/WX    TMP DP  RH WIND       PRES   REMARKS
DAVENPORT      PTSUNNY   70  58  65 S15       30.15F
IOWA CITY      PTSUNNY   70  61  73 SE7       30.16S
MT. PLEASANT * PTSUNNY   75  59  57 S8        30.15S
MUSCATINE *    SUNNY     73  61  64 S12G17    30.15F
QUAD CITIES    PTSUNNY   72  59  63 SE8       30.15F
$$

IAZ062-063-075>077-085>089-095>099-111600-
   SOUTHEAST IOWA

CITY           SKY/WX    TMP DP  RH WIND       PRES   REMARKS
BURLINGTON     PTSUNNY   73  61  65 S10       30.15F
FAIRFIELD *    SUNNY     73  61  64 SE13      30.12F
FORT MADISON * SUNNY     73  63  68 S7        30.15F
KEOKUK *       SUNNY     77  64  65 S6G12     30.14F
OSKALOOSA *      N/A     72  63  73 S12       30.10F
CENTERVILLE *  SUNNY     72  66  83 SE9       30.09F
OTTUMWA        MOSUNNY   72  62  71 S12       30.10F
WASHINGTON *   SUNNY     73  63  68 S9G16     30.14R
$$

ABBREVIATIONS USED IN REMARKS
   TC - TEMPERATURES IN CELSIUS
  WCI - WIND CHILL INDEX
   HX - HEAT INDEX
  VSB - VISIBILITY
$$



USA.gov is the U.S. government's official web portal to all federal, state and local government web resources and services.